| time (UTC) | temp F | wind direction | speed MPH | gust MPH | rain 1hr in | rain 24hr in | rain mn in | humidity % | barometer mb |
| 20260502222516 | 58 | 225 | 1.0 | 4.0 | 0.00 | 0.00 | 0.00 | 40 | 1014.8 |
| 20260502221517 | 57 | 225 | 6.0 | 8.0 | 0.00 | 0.00 | 0.00 | 42 | 1014.9 |
| 20260502220516 | 57 | 248 | 9.0 | 14.0 | 0.00 | 0.00 | 0.00 | 36 | 1015.1 |
| 20260502215517 | 57 | 248 | 7.0 | 14.0 | 0.00 | 0.00 | 0.00 | 39 | 1015.3 |
| 20260502214516 | 57 | 248 | 5.0 | 8.0 | 0.00 | 0.00 | 0.00 | 37 | 1015.4 |
| 20260502213516 | 58 | 248 | 6.0 | 11.0 | 0.00 | 0.00 | 0.00 | 36 | 1015.5 |
| 20260502212516 | 58 | 225 | 10.0 | 15.0 | 0.00 | 0.00 | 0.00 | 38 | 1015.6 |
| 20260502211516 | 58 | 225 | 6.0 | 12.0 | 0.00 | 0.00 | 0.00 | 38 | 1015.7 |
| 20260502210517 | 57 | 225 | 10.0 | 14.0 | 0.00 | 0.00 | 0.00 | 40 | 1015.7 |
| 20260502205537 | 56 | 248 | 9.0 | 14.0 | 0.00 | 0.00 | 0.00 | 43 | 1015.9 |
| 20260502204516 | 56 | 225 | 5.0 | 11.0 | 0.00 | 0.00 | 0.00 | 40 | 1015.9 |
| 20260502203516 | 56 | 225 | 7.0 | 13.0 | 0.00 | 0.00 | 0.00 | 40 | 1016.1 |
| 20260502202516 | 57 | 225 | 7.0 | 14.0 | 0.00 | 0.00 | 0.00 | 43 | 1016.5 |
| 20260502201517 | 57 | 203 | 4.0 | 18.0 | 0.00 | 0.00 | 0.00 | 38 | 1016.5 |
| 20260502200516 | 56 | 248 | 7.0 | 11.0 | 0.00 | 0.00 | 0.00 | 40 | 1016.7 |
| 20260502195516 | 57 | 225 | 9.0 | 17.0 | 0.00 | 0.00 | 0.00 | 40 | 1017.0 |
| 20260502194516 | 56 | 248 | 5.0 | 9.0 | 0.00 | 0.00 | 0.00 | 43 | 1017.2 |
| 20260502193516 | 56 | 225 | 4.0 | 12.0 | 0.00 | 0.00 | 0.00 | 41 | 1017.4 |
| 20260502192522 | 55 | 248 | 7.0 | 12.0 | 0.00 | 0.00 | 0.00 | 42 | 1017.6 |
| 20260502191518 | 56 | 225 | 7.0 | 11.0 | 0.00 | 0.00 | 0.00 | 42 | 1017.7 |
| 20260502190517 | 56 | 225 | 1.0 | 5.0 | 0.00 | 0.00 | 0.00 | 43 | 1017.7 |
| 20260502185516 | 55 | 203 | 4.0 | 9.0 | 0.00 | 0.00 | 0.00 | 39 | 1017.8 |
| 20260502184516 | 53 | 248 | 7.0 | 13.0 | 0.00 | 0.00 | 0.00 | 40 | 1017.9 |
| 20260502183516 | 54 | 270 | 6.0 | 14.0 | 0.00 | 0.00 | 0.00 | 43 | 1018.3 |
| 20260502182516 | 53 | 248 | 5.0 | 9.0 | 0.00 | 0.00 | 0.00 | 43 | 1018.5 |
| 20260502181516 | 53 | 225 | 7.0 | 12.0 | 0.00 | 0.00 | 0.00 | 46 | 1018.5 |
| 20260502180516 | 53 | 293 | 5.0 | 10.0 | 0.00 | 0.00 | 0.00 | 42 | 1018.7 |
| 20260502163516 | 51 | 225 | 5.0 | 10.0 | 0.00 | 0.00 | 0.00 | 49 | 1019.6 |
| 20260502162516 | 51 | 225 | 3.0 | 8.0 | 0.00 | 0.00 | 0.00 | 45 | 1019.7 |
| 20260502161537 | 49 | 270 | 3.0 | 9.0 | 0.00 | 0.00 | 0.00 | 49 | 1019.8 |
| 20260502160516 | 49 | 270 | 3.0 | 6.0 | 0.00 | 0.00 | 0.00 | 44 | 1019.8 |
| 20260502151516 | 48 | 293 | 2.0 | 5.0 | 0.00 | 0.00 | 0.00 | 50 | 1020.3 |
| 20260502150516 | 47 | 293 | 2.0 | 4.0 | 0.00 | 0.00 | 0.00 | 48 | 1020.4 |
| 20260502130515 | 39 | 315 | 1.0 | 2.0 | 0.00 | 0.00 | 0.00 | 66 | 1021.2 |
| 20260502123535 | 36 | 315 | 1.0 | 3.0 | 0.00 | 0.00 | 0.00 | 76 | 1021.1 |
| 20260502122516 | 36 | 293 | 1.0 | 2.0 | 0.00 | 0.00 | 0.00 | 81 | 1021.1 |
| 20260502121515 | 35 | 0.0 | 2.0 | 0.00 | 0.00 | 0.00 | 81 | 1021.1 | |
| 20260502120516 | 34 | 0.0 | 1.0 | 0.00 | 0.00 | 0.00 | 82 | 1021.0 | |
| 20260502115516 | 33 | 270 | 2.0 | 3.0 | 0.00 | 0.00 | 0.00 | 81 | 1021.0 |
| 20260502114515 | 32 | 270 | 1.0 | 2.0 | 0.00 | 0.00 | 0.00 | 81 | 1020.8 |
| 20260502113518 | 32 | 270 | 2.0 | 2.0 | 0.00 | 0.00 | 0.00 | 81 | 1020.8 |
| 20260502112517 | 31 | 270 | 2.0 | 2.0 | 0.00 | 0.00 | 0.00 | 81 | 1020.8 |
| 20260502111518 | 30 | 248 | 2.0 | 3.0 | 0.00 | 0.00 | 0.00 | 83 | 1020.7 |
| 20260502110517 | 30 | 248 | 1.0 | 1.0 | 0.00 | 0.00 | 0.00 | 83 | 1020.5 |
| 20260502105517 | 30 | 248 | 1.0 | 1.0 | 0.00 | 0.00 | 0.00 | 84 | 1020.6 |
| 20260502104537 | 30 | 270 | 1.0 | 1.0 | 0.00 | 0.00 | 0.00 | 82 | 1020.6 |
| 20260502103517 | 30 | 248 | 2.0 | 3.0 | 0.00 | 0.00 | 0.00 | 82 | 1020.7 |
| 20260502102517 | 31 | 248 | 2.0 | 2.0 | 0.00 | 0.00 | 0.00 | 82 | 1020.6 |
| 20260502100517 | 31 | 248 | 1.0 | 2.0 | 0.00 | 0.00 | 0.00 | 81 | 1020.5 |
| 20260502091517 | 31 | 248 | 3.0 | 4.0 | 0.00 | 0.00 | 0.00 | 82 | 1020.2 |
| 20260502090518 | 32 | 248 | 3.0 | 4.0 | 0.00 | 0.00 | 0.00 | 82 | 1020.2 |
| 20260502071518 | 29 | 0.0 | 0.0 | 0.00 | 0.00 | 0.00 | 88 | 1020.2 | |
| 20260502070518 | 30 | 0.0 | 0.0 | 0.00 | 0.00 | 0.00 | 87 | 1020.3 | |
| 20260502065517 | 30 | 0.0 | 0.0 | 0.00 | 0.00 | 0.00 | 88 | 1020.3 | |
| 20260502064517 | 30 | 0.0 | 0.0 | 0.00 | 0.00 | 0.00 | 88 | 1020.4 | |
| 20260502063557 | 31 | 0.0 | 1.0 | 0.00 | 0.00 | 0.00 | 88 | 1020.4 | |
| 20260502062517 | 31 | 0.0 | 0.0 | 0.00 | 0.00 | 0.00 | 88 | 1020.2 | |
| 20260502061537 | 31 | 0.0 | 1.0 | 0.00 | 0.00 | 0.00 | 88 | 1020.2 | |
| 20260502060517 | 31 | 0.0 | 1.0 | 0.00 | 0.00 | 0.00 | 88 | 1020.3 | |
| 20260502055520 | 30 | 248 | 1.0 | 1.0 | 0.00 | 0.00 | 0.00 | 87 | 1020.3 |
| 20260502054517 | 31 | 225 | 1.0 | 2.0 | 0.00 | 0.00 | 0.00 | 89 | 1020.4 |
| 20260502053518 | 31 | 0.0 | 1.0 | 0.00 | 0.00 | 0.00 | 89 | 1020.4 | |
| 20260502052517 | 31 | 225 | 1.0 | 1.0 | 0.00 | 0.00 | 0.00 | 89 | 1020.3 |
| 20260502051518 | 31 | 0.0 | 1.0 | 0.00 | 0.00 | 0.00 | 90 | 1020.3 | |
| 20260502050517 | 31 | 225 | 1.0 | 1.0 | 0.00 | 0.00 | 0.00 | 89 | 1020.4 |
| 20260502045517 | 31 | 0.0 | 1.0 | 0.00 | 0.00 | 0.00 | 89 | 1020.4 | |
| 20260502044517 | 31 | 0.0 | 0.0 | 0.00 | 0.00 | 0.00 | 89 | 1020.3 | |
| 20260502043517 | 32 | 0.0 | 0.0 | 0.00 | 0.00 | 0.00 | 88 | 1020.3 | |
| 20260502042517 | 32 | 0.0 | 0.0 | 0.00 | 0.00 | 0.00 | 88 | 1020.3 | |
| 20260502041517 | 32 | 0.0 | 1.0 | 0.00 | 0.00 | 0.00 | 88 | 1020.4 | |
| 20260502040517 | 33 | 225 | 1.0 | 1.0 | 0.00 | 0.00 | 0.00 | 88 | 1020.5 |
| 20260502035537 | 32 | 0.0 | 1.0 | 0.00 | 0.00 | 0.00 | 89 | 1020.5 | |
| 20260502034517 | 32 | 0.0 | 1.0 | 0.00 | 0.00 | 0.00 | 89 | 1020.5 | |
| 20260502033517 | 32 | 0.0 | 0.0 | 0.00 | 0.00 | 0.00 | 88 | 1020.5 | |
| 20260502032517 | 33 | 0.0 | 1.0 | 0.00 | 0.00 | 0.00 | 87 | 1020.6 | |
| 20260502031517 | 33 | 0.0 | 1.0 | 0.00 | 0.00 | 0.00 | 86 | 1020.7 | |
| 20260502030517 | 34 | 0.0 | 1.0 | 0.00 | 0.00 | 0.00 | 86 | 1020.6 | |
| 20260502025517 | 34 | 0.0 | 1.0 | 0.00 | 0.00 | 0.00 | 86 | 1020.5 | |
| 20260502024517 | 34 | 0.0 | 1.0 | 0.00 | 0.00 | 0.00 | 85 | 1020.5 | |
| 20260502023517 | 35 | 225 | 1.0 | 1.0 | 0.00 | 0.00 | 0.00 | 85 | 1020.5 |
| 20260502022517 | 35 | 0.0 | 1.0 | 0.00 | 0.00 | 0.00 | 82 | 1020.6 | |
| 20260502021517 | 35 | 0.0 | 1.0 | 0.00 | 0.00 | 0.00 | 79 | 1020.6 | |
| 20260502020516 | 36 | 0.0 | 0.0 | 0.00 | 0.00 | 0.00 | 81 | 1020.6 | |
| 20260502015517 | 36 | 0.0 | 0.0 | 0.00 | 0.00 | 0.00 | 76 | 1020.4 | |
| 20260502014537 | 36 | 0.0 | 0.0 | 0.00 | 0.00 | 0.00 | 73 | 1020.4 | |
| 20260502013520 | 37 | 0.0 | 1.0 | 0.00 | 0.00 | 0.00 | 73 | 1020.3 | |
| 20260502012518 | 38 | 0.0 | 0.0 | 0.00 | 0.00 | 0.00 | 68 | 1020.1 | |
| 20260502011517 | 39 | 0.0 | 0.0 | 0.00 | 0.00 | 0.00 | 68 | 1020.1 | |
| 20260502010537 | 40 | 0.0 | 0.0 | 0.00 | 0.00 | 0.00 | 66 | 1020.2 | |
| 20260502005516 | 41 | 0.0 | 0.0 | 0.00 | 0.00 | 0.00 | 64 | 1020.2 | |
| 20260502004536 | 42 | 0.0 | 0.0 | 0.00 | 0.00 | 0.00 | 64 | 1020.4 | |
| 20260502003516 | 42 | 0.0 | 0.0 | 0.00 | 0.00 | 0.00 | 66 | 1020.3 | |
| 20260502002517 | 41 | 0.0 | 1.0 | 0.00 | 0.00 | 0.00 | 66 | 1020.3 | |
| 20260502001516 | 41 | 0.0 | 2.0 | 0.00 | 0.00 | 0.00 | 68 | 1020.2 | |
| 20260502000539 | 41 | 0.0 | 1.0 | 0.00 | 0.00 | 0.00 | 67 | 1020.1 | |
| 20260501235518 | 41 | 45 | 1.0 | 3.0 | 0.00 | 0.00 | 0.00 | 65 | 1019.9 |
| 20260501234517 | 41 | 23 | 1.0 | 3.0 | 0.00 | 0.00 | 0.00 | 65 | 1020.0 |
| 20260501233516 | 41 | 23 | 2.0 | 4.0 | 0.00 | 0.00 | 0.00 | 65 | 1020.0 |
| 20260501232516 | 41 | 23 | 4.0 | 6.0 | 0.00 | 0.00 | 0.00 | 64 | 1020.0 |
| 20260501231517 | 41 | 23 | 4.0 | 6.0 | 0.00 | 0.00 | 0.00 | 63 | 1020.1 |
| 20260501230537 | 41 | 338 | 2.0 | 6.0 | 0.00 | 0.00 | 0.00 | 63 | 1020.0 |
| 20260501225532 | 41 | 0 | 3.0 | 6.0 | 0.00 | 0.00 | 0.00 | 65 | 1019.9 |
| 20260501224519 | 42 | 315 | 3.0 | 5.0 | 0.00 | 0.00 | 0.00 | 64 | 1020.0 |
| 20260501223537 | 42 | 315 | 6.0 | 9.0 | 0.00 | 0.00 | 0.00 | 60 | 1019.8 |